Breeders Fall Classic - 40 MILES HAWK AT LOFT ON RETURN

Station: 40 MILES - T Race

Distance: 40 Miles

Release: 20-Sep-2022 10:15

Weather Release:    Arrival:

Wind at Release:     Wind at Arrival:

Temp at Release: °    Temp at Arrival: °

Lofts: 69

Birds: 141

Clocked: 130

Good Luck to Everyone!
Drops Pos Breeder Pigeon Name Color Sex Ent Arrival Speed To Win Elg PdColored
1 Galiano Loft - MD 0215-AU22-GAL BC H 1 11:12:42.70 1219.857 00:00:00 Yes
2 Tomes Loft - OH 0326-AU22-IHC BCPW H 1 11:57:50.00 684.603 00:45:07 Yes
3 CAN-AM LOFT - MI 22105-AU22-CAAM BB H 1 11:57:50.20 684.581 00:45:07 Yes
4 Phoenixloft - NY 8953-AU22-VITA DC H 1 11:57:51.00 684.492 00:45:08 Yes
5 Jeff Tanner - OH 33107-AU22-AA BLK H 1 11:57:52.10 684.370 00:45:09 Yes
6 Frank Mowinski - OH 0560-AU22-IHC BB H 1 11:57:58.10 683.705 00:45:15 Yes
7 Liberty Loft - MA 26891-AU22-FOYS BB H 1 11:57:59.30 683.573 00:45:17 Yes
8 Ron Pairan - OH 0253-AU22-LFO BB H 1 11:57:59.70 683.528 00:45:17 Yes
9 CAN-AM LOFT - MI 22101-AU22-CAAM BC H 2 11:58:00.70 683.418 00:45:18 Yes
10 Goshentown Lofts - TN 11312-AU22-NASH BB H 1 11:58:01.10 683.374 00:45:18 Yes
11 Racing Pigeon Mall - WA 0205-AU22-RPM BB H 1 11:58:03.50 683.108 00:45:21 Yes
12 Steve Mayr - NY 7688-AU22-BISN BBPD H 1 11:58:06.60 682.766 00:45:24 Yes
13 Sanborn Loft - OH 0663-AU22-IHC BB H 1 11:58:07.10 682.711 00:45:24 Yes
14 Ethan Pippitt - KS 0507-AU22-MERL BBPW H 1 11:58:07.50 682.667 00:45:25 Yes
15 Chicagoland - OH 11207-AU22-CHIC BC 0 1 11:58:11.10 682.270 00:45:28 Yes
16 A P C Loft - TX 22325-AU22-APC BC H 1 11:58:12.90 682.071 00:45:30 Yes
17 Heavenz Angel Loft - MN 29803-AU22-JEDD BC H 1 11:58:16.10 681.719 00:45:33 Yes
18 Era Loft - NY 0705-AU22-BUF BBWF H 1 11:58:19.10 681.389 00:45:36 Yes
19 New Orleans Boys - LA 22268-AU22-MET BBWF H 1 11:58:20.40 681.246 00:45:38 Yes
20 Barry Karas - MI 0510-AU22-HMC BB H 1 11:58:22.60 681.005 00:45:40 Yes
21 Todd Clement - OH 0492-AU22-IHC SILV H 1 11:58:30.30 680.160 00:45:48 Yes
22 Re "s Joy - TN 0306-AU22-BAMA DC H 1 11:58:30.80 680.106 00:45:48 Yes
23 Ivy Calvin - AZ 0710-AU22-EAV GRIZ H 1 11:58:38.80 679.231 00:45:56 Yes
24 Dennis Johnson - OH 0185-AU22-IHC RC H 1 11:58:41.50 678.936 00:45:59 Yes
25 Sanborn Loft - OH 0660-AU22-IHC BC H 2 11:58:43.20 678.750 00:46:01 Yes
26 Marengo Creek Farms - GA 4137-AU22-MCF BB H 1 11:58:46.90 678.347 00:46:04 Yes
27 Wing And A Prayer-Wi - WI 2528-AU22-MPC BB H 1 11:58:52.20 677.770 00:46:10 Yes
28 Miss Dash For Cash - TX 0126-AU22-SIT BC H 1 11:59:12.80 675.537 00:46:30 Yes
29 Unassigned-Oneloft - OR 0431-AU22-TRAP BC 0 2 11:59:13.20 675.494 00:46:31 Yes
30 Dennis Johnson - OH 0191-AU22-IHC RC H 2 11:59:18.90 674.879 00:46:36 Yes
31 Ivy Calvin - AZ 0755-AU22-EAV BLK H 2 11:59:22.80 674.459 00:46:40 Yes
32 Re "s Joy - TN 0314-AU22-BAMA BB H 2 11:59:24.10 674.319 00:46:41 Yes
33 Steve Mayr - NY 4477-AU22-ERIE BBPW H 2 11:59:53.90 671.126 00:47:11 Yes
34 Heavenz Angel Loft - MN 29805-AU22-JEDD BBPW H 2 12:04:31.50 642.776 00:51:49 Yes
35 Alas de Oro - NV 0573-IF22-E BBPD H 1 12:04:31.90 642.736 00:51:49 Yes
36 Triple R Loft 2 - OH 0317-AU22-IHC RED H 1 12:04:34.10 642.521 00:51:51 Yes
37 Alas de Oro - NV 0574-IF22-E BBTK H 2 12:04:35.80 642.355 00:51:53 Yes
38 A P C Loft - TX 22303-AU22-APC BB H 2 12:04:45.40 641.419 00:52:03 Yes
39 Dennis Johnson - OH 0194-AU22-IHC WHGZ H 3 12:05:15.10 638.539 00:52:32 Yes
40 Callahan Loft - MO 22138-AU22-AA BB H 1 12:05:21.40 637.932 00:52:39 Yes
41 Queen Louie - ID 2144-AU22-PNWC “Queen Dark Horse” BC H 1 12:07:38.10 625.028 00:54:55 Yes
42 Jones Family Loft - TX 2341-AU22-JFL SLTW H 1 12:10:47.00 608.032 00:58:04 Yes
43 Callahan Loft - MO 22139-AU22-AA BC H 2 12:10:51.50 607.639 00:58:09 Yes
44 Hale Nūnū - VA 0007-AU22-NUNU BCWT H 1 12:10:51.60 607.630 00:58:09 Yes
45 Steve Mayr - NY 7677-AU22-BISN BBTW H 3 12:10:55.70 607.272 00:58:13 Yes
46 Galiano Loft - MD 0279-AU22-GAL BB H 2 12:11:06.80 606.304 00:58:24 Yes
47 Galiano Loft - MD 0521-IF22-CCC GRIZ H 3 12:12:36.20 598.622 00:59:54 Yes
48 Shawnie Murphy - MI 0119-AU22-CORP BC H 1 12:20:00.50 563.162 01:07:18 Yes
49 Goshentown Lofts - TN 11303-AU22-NASH BB H 2 12:20:03.90 562.907 01:07:21 Yes
50 Phoenixloft - NY 8962-AU22-VITA BC H 2 12:20:16.40 561.971 01:07:34 Yes
51 Ethan Pippitt - KS 51582-AU22-ARPU BB H 2 12:22:05.40 553.938 01:09:23 Yes
52 Unassigned-Oneloft - OR 0537-AU22-BUF BCWF 0 3 12:29:51.90 522.003 01:17:09 Yes
53 Mike Hines - SD 2116-AU22-GPF Red Cloud RC C 1 12:30:01.20 521.404 01:17:19 Yes
54 Nestibelaloft - MI 33008-AU22-ARPU RDGZ H 1 12:43:04.10 475.456 01:30:21 Yes
55 Triple R Loft 2 - OH 0305-AU22-IHC DCPD H 2 12:45:44.50 467.024 01:33:02 Yes
56 Spirit Loft - NE 0118-AU22-SPIR DC H 1 12:45:47.50 466.869 01:33:05 Yes
57 Magic Pick Loft - OH 0127-AU22-IHC BB H 1 12:45:48.60 466.813 01:33:06 Yes
58 Barry Karas - MI 0536-AU22-HMC BB 0 4 12:45:49.00 466.792 01:33:06 Yes
58 Wing And A Prayer-Wi - WI 2524-AU22-MPC BC H 2 12:45:49.00 466.792 01:33:06 Yes
60 Nanez Family Loft - WI 7094-AU22-NANZ BB H 1 12:45:49.20 466.782 01:33:06 Yes
61 Unassigned-Oneloft - OR 0248-AU22-IHC SILV 0 5 12:45:50.60 466.709 01:33:08 Yes
62 Salvicon - CA 0359-AU22-RBPC BB H 1 12:45:55.40 466.462 01:33:13 Yes
63 Marengo Creek Farms - GA 4133-AU22-MCF BB H 2 12:45:55.80 466.441 01:33:13 Yes
64 Sanborn Loft - OH 0662-AU22-IHC BC H 3 12:45:56.60 466.400 01:33:14 Yes
65 Trapper Bob Loft - MO 0424-AU22-TRAP BC H 1 12:45:56.80 466.390 01:33:14 Yes
66 Top Perch - MD 23332-IF22-SBS BBSP H 1 12:45:58.30 466.313 01:33:16 Yes
67 Lindbergh Flyers - MO 2146-AU22-NERP BB H 1 12:45:58.70 466.292 01:33:16 Yes
68 Christine Wyzer - MI 0557-AU22-HMC BBWF H 1 12:45:59.90 466.230 01:33:17 Yes
69 Mike Horner - OH 1606-AU22-VITA BB H 1 12:46:01.00 466.174 01:33:18 Yes
70 Borderjumper - OR 22026-AU22-BORD Grandi Speranze Uno BB H 1 12:46:01.80 466.133 01:33:19 Yes
71 Rich K - OH 0583-AU22-IHC DCWF H 1 12:46:02.20 466.112 01:33:19 Yes
72 Liberty Loft - MA 26831-AU22-FOYS BB H 2 12:46:03.40 466.050 01:33:21 Yes
72 Nanez Family Loft - WI 7022-AU22-NANZ BB H 2 12:46:03.40 466.050 01:33:21 Yes
74 Cherokee Loft - MI 5025-AU22-ARPU BC H 1 12:46:04.90 465.973 01:33:22 Yes
75 Liberty Loft - MA 26830-AU22-FOYS BB H 3 12:46:05.60 465.937 01:33:23 Yes
75 Franklin Brothers - OH 0447-AU22-IHC BB H 1 12:46:05.60 465.937 01:33:23 Yes
77 Jack The Reaper Loft - CA 1261-AU22-FMT Khaleesi BB H 1 12:46:06.10 465.911 01:33:23 Yes
78 Galiano Loft - MD 0530-IF22-CCC BC H 4 12:46:06.50 465.891 01:33:24 Yes
79 Bluesbirds - OH 17199-AU22-AA RDGZ H 1 12:46:07.80 465.824 01:33:25 Yes
80 Mike Hines - SD 2112-AU22-GPF Just In Time BC C 2 12:46:08.70 465.778 01:33:26 Yes
81 Franklin Brothers - OH 0427-AU22-IHC BB H 2 12:46:09.40 465.742 01:33:27 Yes
82 Nanez Family Loft - WI 0731-IF22-RR BB H 3 12:46:11.20 465.650 01:33:28 Yes
83 Jones Family Loft - TX 2320-AU22-JFL GRIZ H 2 12:46:11.30 465.644 01:33:29 Yes
84 Frank Mowinski - OH 0568-AU22-IHC BB H 2 12:46:11.80 465.619 01:33:29 Yes
85 Jacks Loft - NV 19801-AU22-JEDD WHGZ 0 1 12:46:12.30 465.593 01:33:30 Yes
86 Nestibelaloft - MI 29199-AU22-ARPU RC H 2 12:46:13.10 465.552 01:33:30 Yes
87 Loan Tran - MA 26829-AU22-FOYS BB H 1 12:46:14.00 465.506 01:33:31 Yes
88 Rich K - OH 0582-AU22-IHC BBPW H 2 12:46:14.80 465.465 01:33:32 Yes
89 Salvicon - CA 0266-AU22-FCON BB H 2 12:46:15.30 465.439 01:33:33 Yes
90 Wingsnwind Loft - SC 2177-AU22-GRPC DC H 1 12:46:16.20 465.393 01:33:33 Yes
91 Frankie Martinez - OH 0974-AU22-IHC BC H 1 12:46:16.60 465.372 01:33:34 Yes
92 Abilene Loft - OH 0517-AU22-MVS BB H 1 12:46:19.40 465.229 01:33:37 Yes
93 Mitch Zurker - OH 0399-AU22-IHC BC H 1 12:46:22.10 465.091 01:33:39 Yes
94 Unassigned-Oneloft - OR 5314-AU22-FOYS BC 0 6 12:46:23.80 465.004 01:33:41 Yes
95 Cherokee Loft - MI 5029-AU22-ARPU BC H 2 12:46:24.20 464.983 01:33:42 Yes
95 STP Loft - MI 1412-IF22-FOYS BB H 1 12:46:24.20 464.983 01:33:42 Yes
97 Bluesbirds - OH 17152-AU22-AA WHGZ H 2 12:46:25.10 464.937 01:33:42 Yes
98 Tomes Loft - OH 0333-AU22-IHC BC H 2 12:46:28.50 464.763 01:33:46 Yes
99 Racing Pigeon Mall - WA 0200-AU22-RPM BLK H 2 12:46:29.70 464.702 01:33:47 Yes
100 Dave Harrett - WA 18753-AU22-JEDD BC H 1 12:46:31.60 464.605 01:33:49 Yes

There are 130 bird records

Note: These Race Results are unofficial and subject to change until verified by the Race Committee and declared final.